Flag for Nigeria Weather past 2 weeks in Enugu, Nigeria

Now
79 °F

Passing clouds.


Feels Like: 83 °F
Forecast: 74 / 85 °F
Wind: No wind

Location: Douala Obs.

Current Time: Jul 8, 2015 at 6:04:05 AM

Latest Report: Jul 8, 2015 at 5:00 AM


Visibility: N/A

Pressure: 29.86 "Hg

Humidity: 94%

Dew point: 77 °F

Location of EnuguLocation

Historic Weather in Enugu — Graph

°F

Enugu temperature yesterday

Maximum temperature yesterday: 90 °F (at 2:00 PM)
Minimum temperature yesterday: 77 °F (at 5:00 AM)
Average temperature yesterday: 82 °F

Past Weeks' High & Low Weather Summary

 TemperatureHumidityPressure
High90 °F (Jul 7, 2:00 PM)100% (Jun 23, 9:00 AM)30.09 "Hg (Jun 23, 9:00 AM)
Low75 °F (Jun 25, 7:00 PM)62% (Jul 6, 1:00 PM)29.80 "Hg (Jul 6, 4:00 PM)
Average78 °F90%29.95 "Hg
* Reported Jun 23 5:00 AM — Jul 8 5:00 AM, Enugu, Weather by CustomWeather, © 2015

Note: Actual official high and low records may vary slightly from our data, if they occured in-between our weather recording intervals... More about our weather records

Advertising

Enugu weather history for previous 24 hours

 ConditionsComfort  
Time TempWeatherWind HumidityBarometerVisibility
5:00 AM
Wed, Jul 8
79 °FPassing clouds.No wind94%29.86 "HgN/A
4:00 AM79 °FPassing clouds.No wind94%29.86 "HgN/A
3:00 AM79 °FPassing clouds.No wind94%29.89 "HgN/A
2:00 AM81 °FPassing clouds.No wind89%29.86 "HgN/A
1:00 AM81 °FPassing clouds.No wind89%29.86 "HgN/A
12:00 AM81 °FPassing clouds.No wind89%29.86 "HgN/A
11:00 PM
Tue, Jul 7
81 °FPassing clouds.No wind89%29.86 "HgN/A
10:00 PM81 °FPassing clouds.No wind89%29.86 "HgN/A
9:00 PM81 °FPassing clouds.5 mph84%29.86 "HgN/A
8:00 PM81 °FPassing clouds.3 mph84%29.83 "HgN/A
7:00 PM81 °FPassing clouds.7 mph84%29.80 "HgN/A
6:00 PM82 °FScattered clouds.9 mph79%29.80 "HgN/A
5:00 PM86 °FPassing clouds.12 mph75%29.80 "HgN/A
4:00 PM86 °FPassing clouds.9 mph75%29.80 "HgN/A
3:00 PM88 °FScattered clouds.7 mph66%29.83 "HgN/A
2:00 PM90 °FPartly sunny.5 mph63%29.86 "HgN/A
1:00 PM86 °FPartly sunny.5 mph70%29.92 "HgN/A
12:00 PM86 °FPartly sunny.5 mph70%29.92 "HgN/A
11:00 AM82 °FPartly sunny.5 mph79%29.95 "HgN/A
10:00 AM82 °FPartly sunny.No wind79%29.95 "Hg5 mi
9:00 AM82 °FScattered clouds.2 mph84%29.95 "Hg5 mi
8:00 AM79 °FScattered clouds.2 mph94%29.92 "Hg5 mi
7:00 AM77 °FFog.2 mph100%29.92 "Hg2 mi
6:00 AM77 °FPassing clouds.2 mph100%29.89 "Hg5 mi
Weather by CustomWeather, © 2015

See weather overviewHow to use our weather pages